This is the latest recevied weather packets stored in our database for station/object WI0K. If no packets are shown the sender has not sent any weather packets the latest 10 day(s).
| Time | Temp. | Humidity | Pressure | Rain* | Wind** | Luminosity | Snow |
|---|---|---|---|---|---|---|---|
| 1777798589 | 9.44° C | 38% | 830.2 hPa | 0 mm | - | 0 W/m² | - |
| 1777798289 | 9.44° C | 38% | 830.2 hPa | 0 mm | - | 0 W/m² | - |
| 1777797988 | 10° C | 41% | 1017 hPa | 0 mm | - | 0 W/m² | - |
| 1777797687 | 10° C | 36% | 1017 hPa | 0 mm | - | 0 W/m² | - |
| 1777797387 | 10° C | 36% | 830.1 hPa | 0 mm | - | 0 W/m² | - |
| 1777797086 | 10° C | 36% | 830.2 hPa | 0 mm | - | 0 W/m² | - |
| 1777796785 | 10° C | 36% | 830.2 hPa | 0 mm | - | 0 W/m² | - |
| 1777796485 | 10° C | 36% | 830.3 hPa | 0 mm | - | 0 W/m² | - |
| 1777796184 | 10° C | 36% | 1017.1 hPa | 0 mm | - | 0 W/m² | - |
| 1777795883 | 10° C | 38% | 1017.1 hPa | 0 mm | - | 0 W/m² | - |
| 1777795583 | 10° C | 39% | 830.3 hPa | 0 mm | - | 0 W/m² | - |
| 1777795282 | 10° C | 40% | 1017.2 hPa | 0 mm | - | 0 W/m² | - |
| 1777794981 | 10.56° C | 35% | 1017.1 hPa | 0 mm | - | 0 W/m² | - |
| 1777794680 | 10.56° C | 35% | 830.4 hPa | 0 mm | - | 0 W/m² | - |
| 1777794380 | 10° C | 35% | 830.4 hPa | 0 mm | - | 0 W/m² | - |
| 1777794079 | 10° C | 37% | 1017.4 hPa | 0 mm | - | 0 W/m² | - |
| 1777793778 | 10° C | 38% | 1017.4 hPa | 0 mm | - | 0 W/m² | - |
| 1777793478 | 10.56° C | 37% | 1017.5 hPa | 0 mm | - | 0 W/m² | - |
| 1777793177 | 10.56° C | 37% | 1017.5 hPa | 0 mm | - | 0 W/m² | - |
| 1777792876 | 11.11° C | 37% | 1017.5 hPa | 0 mm | - | 0 W/m² | - |
| 1777792576 | 11.11° C | 35% | 1017.6 hPa | 0 mm | - | 0 W/m² | - |
| 1777792275 | 11.11° C | 33% | 1017.5 hPa | 0 mm | - | 0 W/m² | - |
| 1777791975 | 11.11° C | 33% | 1017.5 hPa | 0 mm | - | 0 W/m² | - |
| 1777791674 | 11.11° C | 33% | 1017.5 hPa | 0 mm | - | 0 W/m² | - |
| 1777791373 | 11.67° C | 34% | 1017.5 hPa | 0 mm | - | 0 W/m² | - |
* Rain latest hour (hover to see other rain measurements)
** Current wind speed in m/s (hover to see current wind gust speed)